FENGYUN 1C DEB, 30212

Orbit data source: Space-Track

FENGYUN 1C DEB, 30212 is space debris in SSO originally from a launch on Mon, 10 May 1999 UTC launched from the Taiyaun Space Center, China (TSC). Fengyun 1C debris stems from the Chinese weather satellite Fengyun-1C, which was intentionally destroyed by a Chinese anti-satellite missile in 2007. This event dramatically increased the amount of space debris, with thousands of trackable fragments posing hazards to satellites and human spaceflight. The Fengyun 1C debris cloud has become a focal point in discussions about space sustainability and the need for international regulations to prevent the creation of new debris.

Loading next visibility...
Identifier
30212, 1999-025VV
Orbit
SSO
Country
Flag of CNCN / PRC
Related business
Manufacturer
Unknown
Mission
Spacecraft
Bus & Motor
Unknown
Mass
Unknown
Launch date (UTC)
1999-05-10 (27 years ago)
Launch vehicle
Unknown
Launch site
Taiyaun Space Center, China (TSC)
Object type
Payload
Rocket body
Debris
Shape & HBR
Unknown shape, 0.1 m
Radar Cross Section
Small (<0.1 m²)

Expand to show TLE details & history
Last TLE update: 7 hours ago

TLE from 7 hours ago
0 FENGYUN 1C DEB
1 30212U 99025VV  26122.38035932  .00000391  00000-0  30123-3 0  9994
2 30212  99.4426 356.6995 0096331 215.5945 143.8766 13.97211351981893
Epoch: 2026-05-02T09:07Z
TLE epoch observation values (Epoch: 2026-05-02T09:07:43.045Z)
Latitude
-0.00005°
Longitude
-0.52894°
Altitude
963.229 km
Speed
7.341 km/s
True Right ascension
23h 46m 47s
True Declination
0° 00' 00"
Sunlit
Object was in daylight at epoch
Visualization orbit readout
Latitude
Unknown
Longitude
Unknown
Altitude
Unknown
Speed
Unknown
Apparent Right ascension
Unknown
Apparent Declination
Unknown
Sunlit
N/A
Visualization observer readout
Local Sidereal Time
23:58:07
Azimuth
Unknown
Elevation
Unknown
Doppler factor
Unknown
Orbital elements
Apogee altitude
970.81 km
Perigee altitude
830.575 km
Semi-major axis
7,278.83 km
Eccentricity
0.00963
Inclination
99.4426°
RAAN
356.6995°
Arg. of periapsis
215.5945°
True anomaly
144.52108°
Mean anomaly
143.8766°
Eccentric anomaly
144.19946°
Mean motion
3.49503 °/min
Orbital period
103 mins
BSTAR
0.00030123
Loading maneuver chart data...
Computing Atmospheric mass density...

Documentation

Showing up to 5 results
|